Flag for Russia Weather past 2 weeks in Krasnodar, Russia

Now
45 °F

Passing clouds.


Feels Like: 41 °F
Forecast: 38 / 50 °F
Wind: 6 mph from West

Location: Krasnodar Airport

Current Time: Dec 26, 2014 at 6:50:59 AM

Latest Report: Dec 26, 2014 at 6:00 AM


Visibility: N/A

Pressure: 30.01 "Hg

Humidity: 81%

Dew point: 39 °F

Location of KrasnodarLocation

Historic Weather in Krasnodar — Graph

°F

Krasnodar temperature yesterday

Maximum temperature yesterday: 57 °F (at 12:30 PM)
Minimum temperature yesterday: 48 °F (at 7:30 AM)
Average temperature yesterday: 53 °F

Past Weeks' High & Low Weather Summary

 TemperatureHumidityPressure
High57 °F (Dec 25, 12:30 PM)100% (Dec 11, 10:30 PM)30.39 "Hg (Dec 11, 10:30 PM)
Low30 °F (Dec 13, 9:00 PM)51% (Dec 25, 6:30 PM)29.77 "Hg (Dec 23, 2:00 PM)
Average44 °F88%30.10 "Hg
* Reported Dec 11 5:00 AM — Dec 26 5:30 AM, Krasnodar, Weather by CustomWeather, © 2014

Note: Actual official high and low records may vary slightly from our data, if they occured in-between our weather recording intervals... More about our weather records

Advertising

Krasnodar weather history for previous 24 hours

 ConditionsComfort  
Time TempWeatherWind HumidityBarometerVisibility
5:30 AM
Dec 26
45 °FPassing clouds.8 mph87%30.01 "HgN/A
5:00 AM46 °FPassing clouds.13 mph82%30.01 "HgN/A
4:30 AM46 °FPassing clouds.8 mph87%29.98 "HgN/A
4:00 AM48 °FPassing clouds.8 mph87%29.98 "HgN/A
3:30 AM50 °FPassing clouds.10 mph82%29.98 "HgN/A
3:00 AM50 °FPassing clouds.13 mph76%29.98 "HgN/A
2:30 AM52 °FPassing clouds.13 mph72%29.98 "HgN/A
2:00 AM50 °FClear.10 mph76%29.98 "Hg10 mi
1:30 AM50 °FClear.10 mph76%29.95 "Hg10 mi
1:00 AM52 °FPassing clouds.15 mph72%29.95 "HgN/A
12:30 AM52 °FPassing clouds.15 mph72%29.95 "HgN/A
11:30 PM
Dec 25
55 °FClear.22 mph59%29.92 "Hg10 mi
11:00 PM55 °FClear.20 mph59%29.92 "Hg10 mi
10:30 PM55 °FClear.17 mph55%29.92 "Hg10 mi
10:00 PM54 °FClear.17 mph54%29.92 "Hg10 mi
9:30 PM54 °FClear.17 mph54%29.89 "Hg10 mi
9:00 PM54 °FClear.22 mph54%29.92 "Hg10 mi
8:30 PM54 °FClear.22 mph54%29.92 "Hg10 mi
8:00 PM54 °FClear.26 mph54%29.89 "Hg10 mi
7:30 PM54 °FClear.26 mph54%29.89 "Hg10 mi
7:00 PM55 °FClear.26 mph51%29.89 "Hg10 mi
6:30 PM55 °FClear.24 mph51%29.89 "Hg10 mi
6:00 PM54 °FClear.26 mph58%29.92 "Hg10 mi
5:30 PM54 °FSunny.24 mph63%29.92 "Hg10 mi
5:00 PM55 °FSunny.26 mph59%29.92 "Hg10 mi
4:30 PM55 °FSunny.29 mph59%29.92 "Hg10 mi
4:00 PM55 °FSunny.33 mph59%29.95 "Hg10 mi
3:30 PM55 °FSunny.33 mph63%29.95 "Hg10 mi
3:00 PM57 °FSunny.33 mph59%29.95 "Hg10 mi
2:30 PM57 °FSunny.31 mph63%29.95 "Hg10 mi
2:00 PM57 °FSunny.31 mph63%29.95 "Hg10 mi
1:30 PM57 °FSunny.31 mph63%29.95 "Hg10 mi
1:00 PM57 °FScattered clouds.31 mph63%29.95 "HgN/A
12:30 PM57 °FScattered clouds.33 mph63%29.95 "HgN/A
12:00 PM55 °FPassing clouds.31 mph67%29.98 "HgN/A
11:30 AM55 °FPassing clouds.31 mph67%29.98 "HgN/A
11:00 AM55 °FPassing clouds.26 mph67%29.98 "HgN/A
10:30 AM55 °FPassing clouds.26 mph67%29.98 "HgN/A
10:00 AM54 °FPassing clouds.22 mph72%29.98 "HgN/A
9:30 AM52 °FPassing clouds.20 mph77%30.01 "HgN/A
9:00 AM50 °FScattered clouds.17 mph82%30.01 "HgN/A
8:30 AM48 °FPassing clouds.13 mph82%30.01 "HgN/A
8:00 AM48 °FPassing clouds.10 mph82%30.01 "HgN/A
7:30 AM48 °FPassing clouds.13 mph82%30.01 "HgN/A
6:30 AM50 °FPassing clouds.13 mph82%30.01 "HgN/A
6:00 AM52 °FPassing clouds.15 mph77%30.01 "HgN/A
Weather by CustomWeather, © 2014

See weather overviewHow to use our weather pages